SCP
1 1 1 0 0 0 0 0 0 0 0 0 0 0 0 0 0 0 0 0 0 0 0 0 0 0 0 0 0 0 0 0 0 0 0 0 0 0 0 0 0 0 0
1 1 0 0 0 0 0 0 0 0 0 0 0 0 0 0 0 0 0 0 0 0 0 0 0 0 0 0 0 0 0 0 0 0 0 0 0 0 0 0 0 0 0
0 0 0 0 0 0 0 0 0 0 0 0 0 0 0 0 0 0 0 0 0 0 0 0 0 0 0 0 0 0 0 0 0 0 0 0 0 0 0 0 0 0 0
0 0 0 0 0 0 0 0 0 0 0 0 0 0 0 0 0 0 0 0 0 0 0 0 0 0 0 0 0 0 0 0 0 0 0 0 0 0 0 0 0 0 0
0 0 0 0 0 0 0 0 0 0 0 0 0 0 0 0 0 0 0 0 0 0 0 0 0 0 0 0 0 0 0 0 0 0 0 0 0 0 0 0 0 0 0
0 0 0 0 0 0 0 0 0 0 0 0 0 0 0 0 0 0 0 0 0 0 0 0 0 0 0 0 0 0 0 0 0 0 0 0 0 0 0 0 0 0 0
0 0 0 0 0 0 0 0 0 0 0 0 0 0 0 0 0 0 0 0 0 0 0 0 0 0 0 0 0 0 0 0 0 0 0 0 0 0 0 0 0 0 0
0 0 0 0 0 0 0 0 0 0 0 0 0 0 0 0 0 0 0 0 0 0 0 0 0 0 0 0 0 0 0 0 0 0 0 0 0 0 0 0 0 0 0
0 0 0 0 0 0 0 0 0 0 0 0 0 0 0 0 0 0 0 0 0 0 0 0 0 0 0 0 0 0 0 0 0 0 0 0 0 0 0 0 0 0 0
0 0 0 0 0 0 0 0 0 0 0 0 0 0 0 0 0 0 0 0 0 0 0 0 0 0 0 0 0 0 0 0 0 0 0 0 0 0 0 0 0 0 0
0 0 0 0 0 0 0 0 0 0 0 0 0 0 0 0 0 0 0 0 0 0 0 0 0 0 0 0 0 0 0 0 0 0 0 0 0 0 0 0 0 0 0
0 0 0 0 0 0 0 0 0 0 0 0 0 0 0 0 0 0 0 0 0 0 0 0 0 0 0 0 0 0 0 0 0 0 0 0 0 0 0 0 0 0 0
0 0 0 0 0 0 0 0 0 0 0 0 0 0 0 0 0 0 0 0 0 0 0 0 0 0 0 0 0 0 0 0 0 0 0 0 0 0 0 0 0 0 0
0 0 0 0 0 0 0 0 0 0 0 0 0 0 0 0 0 0 0 0 0 0 0 0 0 0 0 0 0 0 0 0 0 0 0 0 0 0 0 0 0 0 0
0 0 0 0 0 0 0 0 0 0 0 0 0 0 0 0 0 0 0 0 0 0 0 0 0 0 0 0 0 0 0 0 0 0 0 0 0 0 0 0 0 0 0
0 0 0 0 0 0 0 0 0 0 0 0 0 0 0 0 0 0 0 0 0 0 0 0 0 0 0 0 0 0 0 0 0 0 0 0 0 0 0 0 0 0 0
0 0 0 0 0 0 0 0 0 0 0 0 0 0 0 0 0 0 0 0 0 0 0 0 0 0 0 0 0 0 0 0 0 0 0 0 0 0 0 0 0 0 0
0 0 0 0 0 0 0 0 0 0 0 0 0 0 0 0 0 0 0 0 0 0 0 0 0 0 0 0 0 0 0 0 0 0 0 0 0 0 0 0 0 0 0
0 0 0 0 0 0 0 0 0 0 0 0 0 0 0 0 0 0 0 0 0 0 0 0 0 0 0 0 0 0 0 0 0 0 0 0 0 0 0 0 0 0 0
0 0 0 0 0 0 0 0 0 0 0 0 0 0 0 0 0 0 0 0 0 0 0 0 0 0 0 0 0 0 0 0 0 0 0 0 0 0 0 0 0 0 0
0 0 0 0 0 0 0 0 0 0 0 0 0 0 0 0 0 0 0 0 0 0 0 0 0 0 0 0 0 0 0 0 0 0 0 0 0 0 0 0 0 0 0
0 0 0 0 0 0 0 0 0 0 0 0 0 0 0 0 0 0 0 0 0 0 0 0 0 0 0 0 0 0 0 0 0 0 0 0 0 0 0 0 0 0 0
0 0 0 0 0 0 0 0 0 0 0 0 0 0 0 0 0 0 0 0 0 0 0 0 0 0 0 0 0 0 0 0 0 0 0 0 0 0 0 0 0 0 0
0 0 0 0 0 0 0 0 0 0 0 0 0 0 0 0 0 0 0 0 0 0 0 0 0 0 0 0 0 0 0 0 0 0 0 0 0 0 0 0 0 0 0
0 0 0 0 0 0 0 0 0 0 0 0 0 0 0 0 0 0 0 0 0 0 0 0 0 0 0 0 0 0 0 0 0 0 0 0 0 0 0 0 0 0 0
0 0 0 0 0 0 0 0 0 0 0 0 0 0 0 0 0 0 0 0 0 0 0 0 0 0 0 0 0 0 0 0 0 0 0 0 0 0 0 0 0 0 0
Wind_Speed
1 2 3 4 6 7 7 7 6 6 6 6 5 5 5 5 4 4 3 3 3 4 4 4 4 3 3 3 3 3 2 3 6 5 4 6 7 7 3 3 3 2 1
3 3 4 5 6 7 7 6 6 6 6 6 6 6 5 5 4 4 4 4 4 4 4 5 5 4 5 4 3 4 3 3 4 7 6 5 6 6 4 3 3 3 2
4 4 5 5 6 6 6 6 6 7 6 6 6 6 5 4 4 4 4 5 4 4 4 5 5 6 5 4 5 4 4 4 4 5 6 4 3 3 2 2 3 2 2
3 4 4 4 5 5 5 5 6 6 6 6 6 5 5 5 5 4 5 5 5 5 5 5 5 5 5 6 5 5 5 5 5 5 5 4 4 3 2 1 2 2 3
3 4 4 4 4 5 5 5 5 6 6 6 6 5 4 4 4 4 4 5 5 6 6 6 6 8 8 5 4 5 5 4 5 4 4 4 4 4 3 2 3 2 3
3 3 3 4 5 5 5 5 6 6 5 6 6 5 5 4 6 6 5 5 5 6 6 6 5 8 10 10 9 7 5 4 4 4 4 5 5 5 5 4 3 2 3
3 3 4 4 5 5 5 5 6 5 5 6 5 6 6 6 8 7 8 5 6 5 5 6 6 7 9 8 9 8 7 7 4 3 4 4 5 5 7 6 5 3 3
3 3 4 5 5 5 5 5 5 4 5 5 5 5 6 7 9 8 8 6 6 5 5 5 5 7 9 9 7 7 7 7 7 4 3 5 5 6 6 5 6 5 2
3 3 4 5 5 5 5 5 4 5 5 5 5 5 6 7 9 8 6 4 5 5 4 5 6 7 11 11 7 7 8 8 7 8 7 7 8 9 8 5 6 4 2
3 3 4 4 5 5 5 4 4 5 5 6 6 5 6 6 8 8 6 4 4 3 4 5 8 9 10 10 7 7 8 7 8 9 9 10 9 9 10 7 5 5 3
3 4 4 5 5 5 4 4 5 6 6 6 6 5 6 6 8 9 7 4 3 3 4 4 5 9 9 9 7 6 6 6 5 6 7 8 8 8 9 8 6 4 3
4 5 5 5 5 5 6 5 5 6 6 5 5 5 4 4 5 7 9 7 4 3 2 2 4 8 8 9 7 8 9 7 5 6 7 7 7 8 8 8 7 5 3
6 6 5 5 4 5 6 6 5 4 4 4 4 4 2 2 3 6 7 7 7 3 2 3 4 7 6 5 8 10 8 6 6 6 6 6 6 7 7 6 7 6 5
7 6 5 5 5 4 4 4 5 5 4 4 4 4 2 2 1 1 2 3 4 3 3 4 5 6 5 5 5 5 5 5 4 4 5 5 6 6 7 7 6 6 5
7 6 5 5 5 5 4 3 4 3 4 5 4 4 4 3 2 3 2 1 1 2 2 2 3 3 4 4 4 4 4 5 4 4 5 5 6 6 6 6 5 5 5
7 7 5 5 5 5 5 3 2 2 5 6 6 6 3 4 5 5 3 1 2 1 2 1 1 2 2 2 3 3 4 4 4 4 5 5 5 6 6 6 6 6 6
8 8 6 6 6 6 5 5 4 2 2 5 7 8 6 6 6 5 3 1 1 2 1 0 0 1 1 1 2 2 2 3 3 4 5 5 5 5 5 6 6 6 6
9 10 8 7 7 6 6 6 5 5 4 2 4 7 8 8 7 6 4 2 1 1 1 1 2 2 1 1 1 1 1 2 3 3 4 5 5 5 5 6 6 7 6
9 7 7 7 7 7 6 6 5 5 4 3 2 3 7 7 7 6 5 3 3 3 3 3 3 2 2 2 1 0 0 1 2 2 3 4 4 4 5 5 5 7 6
8 12 10 7 7 7 6 6 6 6 5 5 5 5 4 5 4 5 6 5 5 5 4 4 3 3 3 2 2 1 1 1 2 2 3 3 4 4 4 5 5 6 5
8 9 13 8 7 7 7 7 7 7 7 7 7 7 9 7 8 8 7 7 7 7 6 5 4 4 3 3 3 2 2 1 1 1 2 3 3 3 4 4 5 5 6
9 8 8 8 8 8 8 8 7 8 8 9 7 6 11 8 8 8 8 8 8 7 6 6 5 5 5 5 4 4 3 3 2 1 0 1 2 3 3 4 5 5 6
10 10 9 8 8 9 9 7 7 8 8 8 7 6 6 8 8 8 9 8 7 6 6 6 6 5 5 5 5 5 5 4 3 3 2 1 1 2 2 3 5 5 6
11 11 11 10 9 8 8 8 8 8 8 8 8 7 7 8 8 9 9 7 7 7 7 7 7 9 10 7 5 5 5 4 4 4 4 2 1 1 1 2 3 4 4
12 12 11 10 10 10 9 9 8 8 8 8 8 8 8 8 8 9 8 7 8 8 10 9 7 8 11 11 9 7 7 7 6 4 4 3 2 1 1 1 1 2 3
13 13 12 10 10 10 10 9 9 9 9 8 8 8 8 9 9 9 8 7 8 8 9 8 10 11 11 10 11 10 8 8 7 6 4 4 3 2 1 0 1 1 2
Wind_Direction
15 87 103 102 102 99 97 97 99 96 96 96 99 95 88 78 71 74 63 51 50 37 30 30 21 9 0 351 345 338 324 302 286 293 285 300 296 291 273 222 207 205 198
46 84 93 95 97 97 99 102 105 102 98 101 101 93 86 76 69 69 62 53 51 43 34 31 15 5 2 353 345 338 324 307 294 299 304 303 295 299 277 227 208 201 187
66 82 89 92 96 102 106 107 106 105 100 98 97 94 87 78 70 63 64 59 54 48 40 33 13 6 359 347 339 336 325 318 296 294 301 299 296 314 306 242 211 201 194
82 91 93 98 106 105 106 106 106 107 105 100 95 93 87 75 66 59 61 58 52 45 38 31 20 9 352 340 338 338 333 330 326 317 311 316 314 319 314 273 228 205 207
83 96 104 108 106 105 100 96 98 99 103 104 97 85 74 68 56 60 61 60 53 44 34 25 19 17 9 358 346 335 337 338 338 339 334 336 338 341 334 311 267 225 209
105 113 116 114 110 107 105 104 100 95 96 95 89 84 66 51 45 64 80 71 62 52 36 16 9 16 3 360 359 359 356 345 338 339 336 337 333 328 326 316 296 245 221
119 123 119 116 111 109 111 106 104 102 101 94 86 80 68 41 45 64 82 84 72 59 44 25 16 6 4 357 352 360 7 5 356 312 321 325 322 325 325 319 309 287 252
127 128 131 128 120 114 109 105 101 99 99 95 88 80 69 43 44 67 85 82 76 63 49 34 19 3 3 354 354 6 6 8 0 354 326 313 311 312 308 294 299 296 269
148 145 142 136 128 122 117 110 102 103 97 93 91 82 72 46 43 65 83 80 72 56 42 35 26 14 360 6 16 10 6 3 3 6 10 9 2 4 0 356 352 346 331
175 159 145 136 133 131 125 113 105 110 107 101 88 76 73 57 44 61 76 82 73 50 31 26 29 22 13 17 24 19 11 351 348 357 5 8 9 9 15 18 1 354 347
163 143 136 136 136 133 123 115 118 114 107 101 94 78 68 60 52 58 64 76 80 62 38 16 8 11 22 27 31 27 360 341 354 4 7 8 8 7 6 6 4 358 350
147 140 138 138 138 134 126 120 120 120 114 111 106 91 69 57 59 65 66 66 74 76 43 5 356 6 24 31 31 18 15 19 19 17 17 11 4 358 353 351 353 358 350
147 145 141 133 125 133 136 135 128 126 127 129 125 118 104 76 62 64 62 59 56 59 16 2 14 21 24 28 23 21 22 24 23 21 12 360 344 339 344 348 354 360 12
154 152 146 139 132 131 136 144 145 148 144 145 146 144 137 121 97 63 47 40 34 31 10 2 20 35 39 23 15 17 19 19 21 13 359 347 344 353 2 1 358 -0 6
161 159 154 151 146 143 138 143 156 166 169 163 168 161 156 159 182 161 131 57 10 354 357 23 25 19 20 16 10 8 9 11 13 5 0 359 359 5 6 360 0 8 18
167 168 165 159 156 152 144 120 91 153 179 178 168 162 169 171 160 157 143 72 9 36 85 56 24 4 358 357 357 356 0 4 0 359 4 4 3 4 6 6 8 15 16
177 175 169 167 166 166 165 160 153 123 135 172 182 183 180 173 174 173 168 91 62 114 109 131 254 289 306 317 330 341 350 356 357 5 8 7 5 8 9 8 9 13 12
180 180 176 177 176 175 177 176 171 168 172 189 204 206 199 194 191 188 176 142 144 155 205 218 229 242 259 277 297 322 345 4 15 18 16 13 12 12 14 12 12 11 7
182 182 181 179 179 178 177 177 179 184 189 192 192 211 209 204 206 209 185 199 222 224 219 223 225 228 238 244 253 280 17 36 32 24 20 14 9 8 11 10 9 8 9
190 192 182 179 178 178 179 182 188 195 203 209 218 217 176 169 202 209 202 210 220 225 221 222 221 216 215 215 205 182 142 90 54 37 24 15 9 8 7 5 5 4 4
190 194 189 183 186 186 187 193 197 200 208 217 228 220 190 201 220 221 216 215 219 221 218 214 212 204 201 196 191 185 176 152 106 51 27 14 11 11 9 11 11 12 8
188 190 189 190 191 194 196 199 200 205 213 222 234 225 201 210 225 228 227 225 221 217 209 203 203 199 195 192 190 186 187 184 180 163 60 25 22 23 22 23 23 20 19
189 192 192 194 195 196 199 202 203 207 215 222 228 221 201 212 224 228 230 228 215 206 197 192 197 197 195 195 194 191 196 197 193 187 179 132 57 44 39 32 26 23 22
194 197 199 200 199 199 201 204 206 211 216 221 224 224 219 217 223 228 230 223 209 199 192 189 195 199 194 192 196 200 205 198 187 188 187 175 143 81 52 39 29 24 22
197 198 200 201 202 204 206 208 209 212 216 219 221 223 223 221 225 229 227 216 204 198 195 190 192 197 197 198 200 200 196 194 192 184 181 179 167 147 99 37 19 11 13
199 201 203 203 204 204 205 208 211 212 215 219 220 220 220 221 224 226 220 209 204 198 193 191 193 194 192 198 206 201 190 189 190 187 185 182 178 176 173 176 360 353 356